Check out our new BloomSky Weather System.

Active alerts

Houston, TX
  Details for Houston, TX Areal Flood Advisory


Thunder radar  blitzortung!


Rain radar more information rain snow radar


Visit our other weather sites:

Template documentation
and downloads

And another site



Weather Underground History page Text

Daily Summary for April 25, 2017 Units:  Metric    English   Both
« Previous Day
Next Day »
Daily Weekly Monthly Yearly Custom
  High: Low: Average:
Temperature: -17.8 °C 17.6 °C 23.4 °C
Dew Point: -17.8 °C 14.2 °C 19.3 °C
Humidity: Humidity % 65 % 78 %
Wind Speed: 0 km/h 0 km/h 9.5 km/h
Wind Gust: 0 km/h - -
Wind:- - SSE
Pressure: 0 hPa 1000.6 hPa -
Precipitation: 0 mm    
Historical Graphs
 
 
Tabular Data for April 25, 2017
Time Temperature Dew Point Pressure Wind Wind Speed Wind Gust Humidity Rainfall Rate (Hourly)
-17.8 °C -17.8 °C 0 hPa Calm     Humidity % 0 mm
00:02 19.2 °C 14.2 °C 1007.3 hPa South 6.4 km/h 9.7 km/h 73 % 0 mm
00:07 19.2 °C 14.2 °C 1007.3 hPa South 4.8 km/h 11.3 km/h 73 % 0 mm
00:12 19.2 °C 14.5 °C 1007.3 hPa SE 8 km/h 11.3 km/h 74 % 0 mm
00:17 19.2 °C 14.5 °C 1007.3 hPa SSW 6.4 km/h 11.3 km/h 74 % 0 mm
00:22 19.2 °C 14.5 °C 1007.3 hPa SSE 6.4 km/h 11.3 km/h 74 % 0 mm
00:27 19.1 °C 14.4 °C 1007.3 hPa SSE 1.6 km/h 11.3 km/h 74 % 0 mm
00:32 19 °C 14.5 °C 1007.3 hPa SSE 1.6 km/h 11.3 km/h 75 % 0 mm
00:37 18.9 °C 14.4 °C 1007.3 hPa South 1.6 km/h 8 km/h 75 % 0 mm
00:42 18.9 °C 14.4 °C 1007.3 hPa SSE 1.6 km/h 8 km/h 75 % 0 mm
00:47 18.8 °C 14.5 °C 1007.3 hPa South 3.2 km/h 8 km/h 76 % 0 mm
00:52 18.7 °C 14.4 °C 1007 hPa SSE 8 km/h 9.7 km/h 76 % 0 mm
00:57 18.7 °C 14.6 °C 1007 hPa South 3.2 km/h 9.7 km/h 77 % 0 mm
01:02 18.7 °C 14.6 °C 1007 hPa SSE 4.8 km/h 11.3 km/h 77 % 0 mm
01:07 18.7 °C 14.6 °C 1007 hPa SSE 1.6 km/h 11.3 km/h 77 % 0 mm
01:12 18.7 °C 14.6 °C 1007 hPa SSE 9.7 km/h 11.3 km/h 77 % 0 mm
01:17 18.7 °C 14.8 °C 1007 hPa SSW 8 km/h 9.7 km/h 78 % 0 mm
01:22 18.8 °C 14.9 °C 1007 hPa SE 4.8 km/h 12.9 km/h 78 % 0 mm
01:23 18.8 °C 14.9 °C 1007 hPa SSE 4.8 km/h 12.9 km/h 78 % 0 mm
01:28 18.8 °C 14.9 °C 1006.7 hPa South 8 km/h 12.9 km/h 78 % 0 mm
01:33 18.8 °C 14.9 °C 1006.7 hPa South 6.4 km/h 12.9 km/h 78 % 0 mm
01:38 18.8 °C 15.1 °C 1006.7 hPa SE 9.7 km/h 11.3 km/h 79 % 0 mm
01:43 18.8 °C 15.1 °C 1006.7 hPa East 6.4 km/h 12.9 km/h 79 % 0 mm
01:48 18.8 °C 15.1 °C 1006.7 hPa SSW 9.7 km/h 12.9 km/h 79 % 0 mm
01:53 18.8 °C 15.1 °C 1006.7 hPa South 8 km/h 14.5 km/h 79 % 0 mm
01:58 18.8 °C 15.1 °C 1006.7 hPa SSE 6.4 km/h 14.5 km/h 79 % 0 mm
02:03 18.8 °C 15.1 °C 1006.7 hPa SE 3.2 km/h 14.5 km/h 79 % 0 mm
02:08 18.8 °C 15.1 °C 1006.7 hPa SE 3.2 km/h 12.9 km/h 79 % 0 mm
02:13 18.7 °C 15.2 °C 1006.3 hPa SSE 3.2 km/h 12.9 km/h 80 % 0 mm
02:18 18.7 °C 15.2 °C 1006.3 hPa SSE 4.8 km/h 12.9 km/h 80 % 0 mm
02:23 18.7 °C 15.4 °C 1006.3 hPa SSE 4.8 km/h 12.9 km/h 81 % 0 mm
02:28 18.6 °C 15.3 °C 1006.3 hPa South 6.4 km/h 9.7 km/h 81 % 0 mm
02:33 18.7 °C 15.4 °C 1006.3 hPa South 3.2 km/h 11.3 km/h 81 % 0 mm
02:38 18.6 °C 15.3 °C 1006.3 hPa SE 4.8 km/h 11.3 km/h 81 % 0 mm
02:43 18.6 °C 15.5 °C 1006 hPa SSE 4.8 km/h 11.3 km/h 82 % 0 mm
02:48 18.6 °C 15.5 °C 1006 hPa South 6.4 km/h 11.3 km/h 82 % 0 mm
02:53 18.6 °C 15.5 °C 1005.6 hPa SSW 4.8 km/h 9.7 km/h 82 % 0 mm
02:58 18.6 °C 15.5 °C 1005.6 hPa SW 6.4 km/h 11.3 km/h 82 % 0 mm
03:03 18.5 °C 15.6 °C 1005.6 hPa South 1.6 km/h 11.3 km/h 83 % 0 mm
03:08 18.5 °C 15.6 °C 1005.3 hPa SSE 3.2 km/h 11.3 km/h 83 % 0 mm
03:13 18.4 °C 15.5 °C 1005.3 hPa South 4.8 km/h 9.7 km/h 83 % 0 mm
03:18 18.4 °C 15.5 °C 1005.3 hPa SE 6.4 km/h 9.7 km/h 83 % 0 mm
03:23 18.5 °C 15.7 °C 1005 hPa SSE 3.2 km/h 9.7 km/h 84 % 0 mm
03:28 18.4 °C 15.6 °C 1005 hPa ESE 8 km/h 9.7 km/h 84 % 0 mm
03:33 18.4 °C 15.6 °C 1005 hPa SSE 1.6 km/h 9.7 km/h 84 % 0 mm
03:38 18.4 °C 15.8 °C 1005 hPa SSE 3.2 km/h 9.7 km/h 85 % 0 mm
03:43 18.4 °C 15.8 °C 1005 hPa SE 4.8 km/h 9.7 km/h 85 % 0 mm
03:48 18.4 °C 15.8 °C 1005 hPa South 6.4 km/h 9.7 km/h 85 % 0 mm
03:53 18.4 °C 15.8 °C 1005 hPa ESE 4.8 km/h 11.3 km/h 85 % 0 mm
03:58 18.4 °C 15.8 °C 1005 hPa SE 4.8 km/h 11.3 km/h 85 % 0 mm
04:03 18.4 °C 15.8 °C 1005 hPa SE 4.8 km/h 11.3 km/h 85 % 0 mm
04:08 18.4 °C 15.8 °C 1005 hPa SSW 3.2 km/h 11.3 km/h 85 % 0 mm
04:13 18.3 °C 15.9 °C 1005 hPa SE 1.6 km/h 11.3 km/h 86 % 0 mm
04:18 18.3 °C 15.9 °C 1005 hPa SSW 3.2 km/h 9.7 km/h 86 % 0 mm
04:23 18.3 °C 15.9 °C 1005 hPa SE 3.2 km/h 4.8 km/h 86 % 0 mm
04:28 18.3 °C 15.9 °C 1005 hPa SSE 3.2 km/h 6.4 km/h 86 % 0 mm
04:33 18.3 °C 15.9 °C 1005 hPa SSE 1.6 km/h 6.4 km/h 86 % 0 mm
04:38 18.3 °C 15.9 °C 1004.6 hPa South 1.6 km/h 8 km/h 86 % 0 mm
04:43 18.3 °C 16.1 °C 1004.6 hPa SSE 1.6 km/h 8 km/h 87 % 0 mm
04:48 18.2 °C 16 °C 1004.6 hPa South 4.8 km/h 8 km/h 87 % 0 mm
04:53 18.2 °C 16 °C 1004.6 hPa SE 1.6 km/h 8 km/h 87 % 0 mm
04:55 18.2 °C 16 °C 1004.6 hPa SSE 1.6 km/h 8 km/h 87 % 0 mm
05:00 18.2 °C 16 °C 1004.6 hPa SE 3.2 km/h 8 km/h 87 % 0 mm
05:05 18.2 °C 16 °C 1004.6 hPa SSE 6.4 km/h 8 km/h 87 % 0 mm
05:10 18.2 °C 16.2 °C 1004.6 hPa SE 4.8 km/h 9.7 km/h 88 % 0 mm
05:15 18.2 °C 16 °C 1004.6 hPa ESE 3.2 km/h 9.7 km/h 87 % 0 mm
05:20 18.2 °C 16.2 °C 1004.6 hPa Calm   9.7 km/h 88 % 0 mm
05:25 18.2 °C 16.2 °C 1004.6 hPa ESE 1.6 km/h 6.4 km/h 88 % 0 mm
05:26 18.1 °C 16.1 °C 1004.6 hPa ESE 3.2 km/h 6.4 km/h 88 % 0 mm
05:31 18.1 °C 16.1 °C 1004.6 hPa Calm   6.4 km/h 88 % 0 mm
05:36 18 °C 16 °C 1004.6 hPa East 1.6 km/h 4.8 km/h 88 % 0 mm
05:41 17.9 °C 15.9 °C 1004.6 hPa ESE 1.6 km/h 4.8 km/h 88 % 0 mm
05:46 17.9 °C 15.9 °C 1004.6 hPa SE 1.6 km/h 4.8 km/h 88 % 0 mm
05:51 17.8 °C 15.8 °C 1004.6 hPa Calm   4.8 km/h 88 % 0 mm
05:56 17.7 °C 15.9 °C 1004.6 hPa SE 1.6 km/h 4.8 km/h 89 % 0 mm
06:01 17.7 °C 15.9 °C 1004.6 hPa Calm   4.8 km/h 89 % 0 mm
06:06 17.6 °C 15.8 °C 1004.6 hPa SW 3.2 km/h 4.8 km/h 89 % 0 mm
06:11 17.6 °C 15.9 °C 1004.6 hPa Calm   4.8 km/h 90 % 0 mm
06:16 17.6 °C 15.9 °C 1004.6 hPa ESE 1.6 km/h 4.8 km/h 90 % 0 mm
06:21 17.6 °C 15.9 °C 1004.6 hPa ESE 1.6 km/h 4.8 km/h 90 % 0 mm
06:26 17.7 °C 16 °C 1004.6 hPa SE 1.6 km/h 4.8 km/h 90 % 0 mm
06:31 17.7 °C 16 °C 1004.6 hPa SE 3.2 km/h 4.8 km/h 90 % 0 mm
06:36 17.7 °C 16 °C 1004.3 hPa ESE 1.6 km/h 4.8 km/h 90 % 0 mm
06:41 17.7 °C 16 °C 1004.6 hPa Calm   4.8 km/h 90 % 0 mm
06:46 17.6 °C 15.9 °C 1004.3 hPa Calm   4.8 km/h 90 % 0 mm
06:51 17.6 °C 15.9 °C 1004.3 hPa SSE 1.6 km/h 3.2 km/h 90 % 0 mm
06:56 17.6 °C 16.1 °C 1004.6 hPa South 3.2 km/h 3.2 km/h 91 % 0 mm
07:01 17.6 °C 16.1 °C 1004.3 hPa South 1.6 km/h 4.8 km/h 91 % 0 mm
07:06 17.6 °C 16.3 °C 1004.6 hPa SSE 3.2 km/h 4.8 km/h 92 % 0 mm
07:11 17.7 °C 16.4 °C 1004.6 hPa SE 3.2 km/h 4.8 km/h 92 % 0 mm
07:16 17.8 °C 16.5 °C 1004.6 hPa SSW 3.2 km/h 8 km/h 92 % 0 mm
07:21 17.9 °C 16.6 °C 1004.6 hPa South 3.2 km/h 8 km/h 92 % 0 mm
07:22 17.9 °C 16.6 °C 1004.6 hPa SSE 1.6 km/h 8 km/h 92 % 0 mm
07:27 18.1 °C 16.8 °C 1004.6 hPa SE 1.6 km/h 8 km/h 92 % 0 mm
07:32 18.3 °C 17 °C 1005 hPa SSE 3.2 km/h 6.4 km/h 92 % 0 mm
07:37 18.6 °C 17.3 °C 1005 hPa SE 3.2 km/h 6.4 km/h 92 % 0 mm
07:42 18.9 °C 17.4 °C 1004.6 hPa SSE 3.2 km/h 8 km/h 91 % 0 mm
07:47 19.3 °C 17.6 °C 1004.6 hPa South 9.7 km/h 9.7 km/h 90 % 0 mm
07:52 19.6 °C 17.7 °C 1004.6 hPa SE 6.4 km/h 11.3 km/h 89 % 0 mm
07:57 19.9 °C 18 °C 1004.6 hPa SE 9.7 km/h 11.3 km/h 89 % 0 mm
08:02 20.3 °C 18.2 °C 1004.6 hPa SSE 3.2 km/h 11.3 km/h 88 % 0 mm
08:07 20.6 °C 18.4 °C 1004.6 hPa SSE 3.2 km/h 11.3 km/h 87 % 0 mm
08:12 21 °C 18.8 °C 1004.6 hPa SSW 3.2 km/h 11.3 km/h 87 % 0 mm
08:17 21.3 °C 18.7 °C 1004.6 hPa SSE 8 km/h 11.3 km/h 85 % 0 mm
08:22 21.7 °C 18.9 °C 1005 hPa SE 6.4 km/h 14.5 km/h 84 % 0 mm
08:27 21.9 °C 19.1 °C 1004.6 hPa SE 4.8 km/h 16.1 km/h 84 % 0 mm
08:32 22.2 °C 19.2 °C 1004.6 hPa South 14.5 km/h 16.1 km/h 83 % 0 mm
08:37 22.4 °C 19.2 °C 1004.6 hPa SSE 6.4 km/h 17.7 km/h 82 % 0 mm
08:42 22.7 °C 19.3 °C 1004.6 hPa SSW 11.3 km/h 20.9 km/h 81 % 0 mm
08:47 22.9 °C 19.3 °C 1005 hPa SSE 8 km/h 20.9 km/h 80 % 0 mm
08:52 23.1 °C 19.3 °C 1005 hPa South 9.7 km/h 20.9 km/h 79 % 0 mm
08:57 23.2 °C 19.1 °C 1005 hPa SSW 8 km/h 19.3 km/h 78 % 0 mm
09:02 23.3 °C 19.5 °C 1005 hPa SSE 9.7 km/h 22.5 km/h 79 % 0 mm
09:07 23.4 °C 19.1 °C 1005 hPa SSW 8 km/h 22.5 km/h 77 % 0 mm
09:12 23.5 °C 19.4 °C 1005 hPa South 6.4 km/h 22.5 km/h 78 % 0 mm
09:17 23.6 °C 19.3 °C 1005 hPa South 17.7 km/h 22.5 km/h 77 % 0 mm
09:22 23.6 °C 19.5 °C 1005 hPa SSE 11.3 km/h 24.1 km/h 78 % 0 mm
09:27 23.7 °C 19.4 °C 1004.6 hPa SE 17.7 km/h 24.1 km/h 77 % 0 mm
09:32 23.7 °C 19.6 °C 1005 hPa SSE 14.5 km/h 29 km/h 78 % 0 mm
09:37 23.8 °C 19.7 °C 1005 hPa South 14.5 km/h 29 km/h 78 % 0 mm
09:42 23.8 °C 19.7 °C 1004.6 hPa SSE 9.7 km/h 29 km/h 78 % 0 mm
09:47 23.9 °C 19.6 °C 1005 hPa SSE 4.8 km/h 25.7 km/h 77 % 0 mm
09:52 24.2 °C 19.9 °C 1005 hPa SSE 16.1 km/h 25.7 km/h 77 % 0 mm
09:57 24.1 °C 19.6 °C 1005 hPa SSE 16.1 km/h 30.6 km/h 76 % 0 mm
10:02 24.3 °C 19.8 °C 1005 hPa SE 9.7 km/h 30.6 km/h 76 % 0 mm
10:07 24.3 °C 19.6 °C 1005 hPa SSE 12.9 km/h 30.6 km/h 75 % 0 mm
10:12 24.4 °C 19.9 °C 1004.6 hPa SE 24.1 km/h 29 km/h 76 % 0 mm
10:17 24.6 °C 19.9 °C 1004.6 hPa South 24.1 km/h 25.7 km/h 75 % 0 mm
10:22 24.6 °C 19.9 °C 1004.6 hPa SE 17.7 km/h 29 km/h 75 % 0 mm
10:27 24.9 °C 20.4 °C 1004.6 hPa ESE 11.3 km/h 29 km/h 76 % 0 mm
10:32 25 °C 20 °C 1005 hPa SSW 16.1 km/h 29 km/h 74 % 0 mm
10:37 25.1 °C 20.1 °C 1005 hPa SE 9.7 km/h 29 km/h 74 % 0 mm
10:42 25.1 °C 20.1 °C 1005 hPa SE 4.8 km/h 29 km/h 74 % 0 mm
10:47 25.2 °C 20.2 °C 1005 hPa SSE 22.5 km/h 27.4 km/h 74 % 0 mm
10:52 25.5 °C 20.5 °C 1005 hPa SW 22.5 km/h 24.1 km/h 74 % 0 mm
10:57 25.8 °C 20.6 °C 1005 hPa SSE 8 km/h 24.1 km/h 73 % 0 mm
11:02 25.8 °C 20.6 °C 1005 hPa South 11.3 km/h 24.1 km/h 73 % 0 mm
11:07 25.8 °C 20.6 °C 1005 hPa South 16.1 km/h 25.7 km/h 73 % 0 mm
11:12 25.7 °C 20.5 °C 1005 hPa SSW 9.7 km/h 25.7 km/h 73 % 0 mm
11:17 25.7 °C 20.5 °C 1004.6 hPa ESE 9.7 km/h 25.7 km/h 73 % 0 mm
11:22 25.8 °C 20.6 °C 1005 hPa SSW 16.1 km/h 20.9 km/h 73 % 0 mm
11:27 26 °C 20.8 °C 1005 hPa SW 6.4 km/h 24.1 km/h 73 % 0 mm
11:32 26 °C 20.6 °C 1005 hPa SW 11.3 km/h 24.1 km/h 72 % 0 mm
11:37 26 °C 20.6 °C 1005 hPa South 19.3 km/h 24.1 km/h 72 % 0 mm
11:42 26.1 °C 20.7 °C 1004.6 hPa SSW 22.5 km/h 25.7 km/h 72 % 0 mm
11:47 26.2 °C 20.7 °C 1004.6 hPa WSW 11.3 km/h 27.4 km/h 72 % 0 mm
11:52 26.6 °C 21.4 °C 1004.6 hPa SSW 8 km/h 27.4 km/h 73 % 0 mm
11:57 26.9 °C 21.2 °C 1004.6 hPa East 8 km/h 27.4 km/h 71 % 0 mm
12:02 27.1 °C 20.9 °C 1004.6 hPa SSE 4.8 km/h 24.1 km/h 69 % 0 mm
12:07 27.2 °C 21 °C 1004.6 hPa SE 27.4 km/h 27.4 km/h 69 % 0 mm
12:12 27.2 °C 21 °C 1004.6 hPa SSE 6.4 km/h 29 km/h 69 % 0 mm
12:18 27.1 °C 20.9 °C 1004.6 hPa SSE 19.3 km/h 29 km/h 69 % 0 mm
12:23 26.9 °C 21 °C 1004.6 hPa South 17.7 km/h 29 km/h 70 % 0 mm
12:28 26.9 °C 21.2 °C 1004.6 hPa South 4.8 km/h 25.7 km/h 71 % 0 mm
12:33 27 °C 21.1 °C 1004.6 hPa South 12.9 km/h 25.7 km/h 70 % 0 mm
12:38 27.1 °C 21.2 °C 1004.3 hPa SSE 11.3 km/h 24.1 km/h 70 % 0 mm
12:43 27.1 °C 21.2 °C 1004.3 hPa SW 16.1 km/h 22.5 km/h 70 % 0 mm
12:48 27.2 °C 21.2 °C 1004.3 hPa SSE 12.9 km/h 24.1 km/h 70 % 0 mm
12:53 27.3 °C 21.3 °C 1004.3 hPa SSE 9.7 km/h 24.1 km/h 70 % 0 mm
12:58 27.4 °C 21.2 °C 1003.9 hPa South 14.5 km/h 24.1 km/h 69 % 0 mm
13:03 27.6 °C 21.4 °C 1003.9 hPa SE 8 km/h 22.5 km/h 69 % 0 mm
13:08 27.7 °C 21.5 °C 1003.9 hPa SSE 9.7 km/h 22.5 km/h 69 % 0 mm
13:13 27.8 °C 22.1 °C 1003.9 hPa South 12.9 km/h 22.5 km/h 71 % 0 mm
13:18 28.2 °C 21.7 °C 1003.9 hPa South 16.1 km/h 20.9 km/h 68 % 0 mm
13:23 28.1 °C 21.4 °C 1003.9 hPa South 11.3 km/h 19.3 km/h 67 % 0 mm
13:28 28.1 °C 21.4 °C 1003.6 hPa South 14.5 km/h 24.1 km/h 67 % 0 mm
13:33 28.2 °C 21.7 °C 1003.6 hPa SSW 12.9 km/h 24.1 km/h 68 % 0 mm
13:38 28.4 °C 22.2 °C 1003.6 hPa SSE 14.5 km/h 24.1 km/h 69 % 0 mm
13:43 28.6 °C 21.9 °C 1003.6 hPa ESE 14.5 km/h 19.3 km/h 67 % 0 mm
13:48 28.3 °C 21.6 °C 1003.6 hPa SSE 8 km/h 19.3 km/h 67 % 0 mm
13:53 28.6 °C 21.9 °C 1003.3 hPa East 14.5 km/h 25.7 km/h 67 % 0 mm
13:58 28.8 °C 22.1 °C 1003.3 hPa SSE 17.7 km/h 27.4 km/h 67 % 0 mm
14:03 28.8 °C 21.8 °C 1002.9 hPa SSE 17.7 km/h 27.4 km/h 66 % 0 mm
14:08 28.5 °C 21.8 °C 1002.9 hPa SW 14.5 km/h 27.4 km/h 67 % 0 mm
14:13 28.4 °C 21.9 °C 1002.9 hPa SE 16.1 km/h 22.5 km/h 68 % 0 mm
14:18 28.8 °C 22.1 °C 1002.9 hPa SW 9.7 km/h 20.9 km/h 67 % 0 mm
14:23 28.7 °C 21.7 °C 1002.9 hPa SSW 12.9 km/h 27.4 km/h 66 % 0 mm
14:28 28.6 °C 21.9 °C 1002.9 hPa SSW 14.5 km/h 27.4 km/h 67 % 0 mm
14:33 28.9 °C 22.2 °C 1002.6 hPa South 9.7 km/h 27.4 km/h 67 % 0 mm
14:38 28.9 °C 21.7 °C 1002.6 hPa South 17.7 km/h 24.1 km/h 65 % 0 mm
14:43 29 °C 22 °C 1002.6 hPa South 11.3 km/h 24.1 km/h 66 % 0 mm
14:48 29.2 °C 21.9 °C 1002.3 hPa SE 17.7 km/h 24.1 km/h 65 % 0 mm
14:53 29.1 °C 22.1 °C 1002.3 hPa ESE 4.8 km/h 25.7 km/h 66 % 0 mm
14:58 29.3 °C 22 °C 1002.3 hPa SE 17.7 km/h 25.7 km/h 65 % 0 mm
15:03 29 °C 21.8 °C 1002.3 hPa SW 16.1 km/h 25.7 km/h 65 % 0 mm
15:08 29 °C 22 °C 1002.3 hPa SSE 14.5 km/h 25.7 km/h 66 % 0 mm
15:13 29.2 °C 21.9 °C 1002.3 hPa South 20.9 km/h 25.7 km/h 65 % 0 mm
15:18 28.9 °C 21.9 °C 1002.3 hPa WSW 11.3 km/h 29 km/h 66 % 0 mm
15:23 28.8 °C 22.1 °C 1001.9 hPa South 12.9 km/h 29 km/h 67 % 0 mm
15:28 29 °C 22.2 °C 1001.9 hPa South 9.7 km/h 29 km/h 67 % 0 mm
15:33 28.9 °C 21.9 °C 1001.9 hPa South 22.5 km/h 22.5 km/h 66 % 0 mm
15:38 28.8 °C 21.8 °C 1001.9 hPa SE 11.3 km/h 24.1 km/h 66 % 0 mm
15:43 28.8 °C 22.1 °C 1001.9 hPa South 8 km/h 24.1 km/h 67 % 0 mm
15:48 29 °C 22.2 °C 1001.6 hPa South 6.4 km/h 24.1 km/h 67 % 0 mm
15:53 29.1 °C 21.8 °C 1001.6 hPa SE 11.3 km/h 20.9 km/h 65 % 0 mm
15:58 29.1 °C 22.3 °C 1001.6 hPa SE 12.9 km/h 20.9 km/h 67 % 0 mm
16:03 28.9 °C 22.4 °C 1001.6 hPa South 17.7 km/h 22.5 km/h 68 % 0 mm
16:08 28.8 °C 22.1 °C 1001.2 hPa SE 14.5 km/h 24.1 km/h 67 % 0 mm
16:13 28.8 °C 22.1 °C 1000.9 hPa SE 20.9 km/h 24.1 km/h 67 % 0 mm
16:18 29 °C 22.2 °C 1000.9 hPa SSW 8 km/h 27.4 km/h 67 % 0 mm
16:23 29.1 °C 22.1 °C 1000.9 hPa ESE 11.3 km/h 30.6 km/h 66 % 0 mm
16:28 29 °C 22 °C 1000.9 hPa SSE 16.1 km/h 30.6 km/h 66 % 0 mm
16:33 29 °C 22.2 °C 1000.9 hPa SSE 22.5 km/h 30.6 km/h 67 % 0 mm
16:38 28.8 °C 22.1 °C 1000.9 hPa SSE 24.1 km/h 29 km/h 67 % 0 mm
16:43 28.6 °C 21.9 °C 1000.9 hPa ESE 12.9 km/h 30.6 km/h 67 % 0 mm
16:48 28.4 °C 21.7 °C 1000.6 hPa South 16.1 km/h 30.6 km/h 67 % 0 mm
16:53 28.4 °C 21.9 °C 1000.6 hPa SSW 14.5 km/h 30.6 km/h 68 % 0 mm
16:58 28.7 °C 22.2 °C 1000.6 hPa South 9.7 km/h 24.1 km/h 68 % 0 mm
17:03 28.4 °C 21.7 °C 1000.6 hPa SW 14.5 km/h 24.1 km/h 67 % 0 mm
17:08 28.2 °C 22 °C 1000.9 hPa SE 17.7 km/h 25.7 km/h 69 % 0 mm
17:13 28 °C 22 °C 1000.6 hPa SE 14.5 km/h 25.7 km/h 70 % 0 mm
17:18 27.8 °C 21.3 °C 1000.6 hPa South 24.1 km/h 27.4 km/h 68 % 0 mm
17:23 27.7 °C 21.5 °C 1000.6 hPa South 8 km/h 27.4 km/h 69 % 0 mm
17:28 27.6 °C 21.6 °C 1000.6 hPa South 12.9 km/h 27.4 km/h 70 % 0 mm
17:33 27.6 °C 21.6 °C 1000.6 hPa SSE 6.4 km/h 29 km/h 70 % 0 mm
17:38 27.7 °C 22 °C 1000.6 hPa SSE 12.9 km/h 29 km/h 71 % 0 mm
17:43 27.6 °C 21.9 °C 1000.6 hPa SE 9.7 km/h 32.2 km/h 71 % 0 mm
17:48 27.4 °C 21.7 °C 1000.6 hPa SSW 9.7 km/h 32.2 km/h 71 % 0 mm
17:53 27.4 °C 21.4 °C 1000.6 hPa SW 17.7 km/h 32.2 km/h 70 % 0 mm
17:58 27.3 °C 21.6 °C 1000.6 hPa SSW 12.9 km/h 30.6 km/h 71 % 0 mm
18:03 27.2 °C 21.5 °C 1000.6 hPa SE 11.3 km/h 30.6 km/h 71 % 0 mm
18:08 27.3 °C 21.6 °C 1000.6 hPa SSE 14.5 km/h 30.6 km/h 71 % 0 mm
18:13 27.2 °C 21.5 °C 1000.6 hPa SSW 12.9 km/h 27.4 km/h 71 % 0 mm
18:18 27.2 °C 21.5 °C 1000.6 hPa SE 9.7 km/h 29 km/h 71 % 0 mm
18:23 27.1 °C 21.4 °C 1000.6 hPa SE 16.1 km/h 29 km/h 71 % 0 mm
18:28 27.1 °C 21.4 °C 1000.6 hPa ESE 14.5 km/h 29 km/h 71 % 0 mm
18:33 27 °C 21.5 °C 1000.6 hPa South 19.3 km/h 27.4 km/h 72 % 0 mm
18:38 26.9 °C 21.4 °C 1000.6 hPa SW 16.1 km/h 27.4 km/h 72 % 0 mm
18:43 26.8 °C 21.8 °C 1000.6 hPa ESE 12.9 km/h 27.4 km/h 74 % 0 mm
18:48 26.8 °C 21.8 °C 1000.6 hPa SSW 8 km/h 25.7 km/h 74 % 0 mm
18:53 26.7 °C 21.9 °C 1000.6 hPa ESE 16.1 km/h 25.7 km/h 75 % 0 mm
18:58 26.6 °C 21.8 °C 1000.6 hPa SE 19.3 km/h 20.9 km/h 75 % 0 mm
19:04 26.6 °C 22 °C 1000.6 hPa SE 12.9 km/h 29 km/h 76 % 0 mm
19:09 26.5 °C 21.9 °C 1000.6 hPa SSW 11.3 km/h 29 km/h 76 % 0 mm
19:14 26.4 °C 21.8 °C 1000.6 hPa SSE 8 km/h 29 km/h 76 % 0 mm
19:19 26.3 °C 21.9 °C 1000.6 hPa SW 17.7 km/h 25.7 km/h 77 % 0 mm
19:24 26.2 °C 21.8 °C 1000.6 hPa ESE 8 km/h 20.9 km/h 77 % 0 mm
19:29 26.2 °C 21.8 °C 1000.6 hPa SE 9.7 km/h 20.9 km/h 77 % 0 mm
19:34 26.1 °C 22 °C 1000.6 hPa South 9.7 km/h 20.9 km/h 78 % 0 mm
19:39 26.1 °C 22 °C 1000.6 hPa SSE 11.3 km/h 22.5 km/h 78 % 0 mm
19:44 26 °C 22.1 °C 1000.6 hPa SSE 11.3 km/h 22.5 km/h 79 % 0 mm
19:49 25.9 °C 22 °C 1000.6 hPa SSE 16.1 km/h 24.1 km/h 79 % 0 mm
19:54 25.9 °C 22 °C 1000.6 hPa SSE 6.4 km/h 25.7 km/h 79 % 0 mm
19:59 25.9 °C 22.2 °C 1000.6 hPa SE 6.4 km/h 25.7 km/h 80 % 0 mm
20:04 25.8 °C 22.1 °C 1000.6 hPa SSE 19.3 km/h 25.7 km/h 80 % 0 mm
20:09 25.8 °C 22.1 °C 1000.6 hPa SE 11.3 km/h 24.1 km/h 80 % 0 mm
20:14 25.7 °C 22 °C 1000.6 hPa South 9.7 km/h 24.1 km/h 80 % 0 mm
20:19 25.6 °C 22.1 °C 1000.6 hPa SSE 12.9 km/h 24.1 km/h 81 % 0 mm
20:24 25.6 °C 22.1 °C 1000.6 hPa SE 11.3 km/h 24.1 km/h 81 % 0 mm
20:29 25.6 °C 22.1 °C 1000.6 hPa SE 17.7 km/h 24.1 km/h 81 % 0 mm
20:34 25.5 °C 22 °C 1000.6 hPa SSW 4.8 km/h 27.4 km/h 81 % 0 mm
20:39 25.4 °C 21.9 °C 1000.6 hPa SSE 12.9 km/h 27.4 km/h 81 % 0 mm
20:44 25.4 °C 21.9 °C 1000.6 hPa SSE 12.9 km/h 27.4 km/h 81 % 0 mm
20:49 25.4 °C 21.9 °C 1000.9 hPa ESE 17.7 km/h 25.7 km/h 81 % 0 mm
20:54 25.4 °C 21.9 °C 1000.9 hPa SSW 8 km/h 24.1 km/h 81 % 0 mm
20:59 25.3 °C 21.8 °C 1000.9 hPa SE 9.7 km/h 24.1 km/h 81 % 0 mm
21:04 25.3 °C 21.8 °C 1000.9 hPa South 11.3 km/h 24.1 km/h 81 % 0 mm
21:09 25.3 °C 22 °C 1001.2 hPa South 4.8 km/h 22.5 km/h 82 % 0 mm
21:14 25.3 °C 22 °C 1001.2 hPa SSW 14.5 km/h 22.5 km/h 82 % 0 mm
21:19 25.3 °C 22 °C 1001.2 hPa East 9.7 km/h 20.9 km/h 82 % 0 mm
21:24 25.3 °C 22 °C 1001.2 hPa SE 8 km/h 20.9 km/h 82 % 0 mm
21:29 25.2 °C 22.1 °C 1001.2 hPa SE 12.9 km/h 20.9 km/h 83 % 0 mm
21:34 25.2 °C 22.1 °C 1000.9 hPa SW 9.7 km/h 25.7 km/h 83 % 0 mm
21:39 25.2 °C 22.1 °C 1000.9 hPa South 12.9 km/h 25.7 km/h 83 % 0 mm
21:44 25.2 °C 22.1 °C 1000.9 hPa SE 16.1 km/h 25.7 km/h 83 % 0 mm
21:49 25.2 °C 22.1 °C 1001.2 hPa SE 14.5 km/h 25.7 km/h 83 % 0 mm
21:54 25.1 °C 22.2 °C 1001.2 hPa SSE 9.7 km/h 25.7 km/h 84 % 0 mm
21:59 25.1 °C 22.2 °C 1001.2 hPa SSE 3.2 km/h 25.7 km/h 84 % 0 mm
22:05 25.1 °C 22.2 °C 1001.2 hPa SSE 8 km/h 24.1 km/h 84 % 0 mm
22:09 25.1 °C 22.2 °C 1001.2 hPa ESE 16.1 km/h 20.9 km/h 84 % 0 mm
22:14 25.1 °C 22.2 °C 1001.2 hPa SE 12.9 km/h 24.1 km/h 84 % 0 mm
22:19 25 °C 22.1 °C 1001.2 hPa South 8 km/h 24.1 km/h 84 % 0 mm
22:24 25 °C 22.1 °C 1001.2 hPa East 19.3 km/h 24.1 km/h 84 % 0 mm
22:30 25 °C 22.1 °C 1001.2 hPa SSE 9.7 km/h 33.8 km/h 84 % 0 mm
22:35 25 °C 22.3 °C 1000.9 hPa South 16.1 km/h 33.8 km/h 85 % 0 mm
22:40 24.9 °C 22.2 °C 1000.9 hPa SSE 17.7 km/h 33.8 km/h 85 % 0 mm
22:44 24.9 °C 22.2 °C 1000.9 hPa SSE 12.9 km/h 25.7 km/h 85 % 0 mm
22:50 24.9 °C 22.2 °C 1000.9 hPa SE 16.1 km/h 25.7 km/h 85 % 0 mm
22:55 24.9 °C 22.2 °C 1000.9 hPa ESE 16.1 km/h 25.7 km/h 85 % 0 mm
23:00 24.9 °C 22.2 °C 1000.9 hPa SSW 12.9 km/h 24.1 km/h 85 % 0 mm
23:05 24.9 °C 22.2 °C 1000.9 hPa SSE 19.3 km/h 30.6 km/h 85 % 0 mm
23:10 24.9 °C 22.2 °C 1000.6 hPa SSW 6.4 km/h 30.6 km/h 85 % 0 mm
23:15 24.9 °C 22.2 °C 1000.6 hPa SSE 9.7 km/h 30.6 km/h 85 % 0 mm
23:20 24.9 °C 22.2 °C 1000.6 hPa SE 11.3 km/h 29 km/h 85 % 0 mm
23:25 24.9 °C 22.2 °C 1000.6 hPa ESE 8 km/h 29 km/h 85 % 0 mm
23:30 24.9 °C 22.2 °C 1000.9 hPa SSW 11.3 km/h 25.7 km/h 85 % 0 mm
23:35 24.9 °C 22.2 °C 1001.2 hPa SSW 8 km/h 25.7 km/h 85 % 0 mm
23:40 24.9 °C 22.2 °C 1001.2 hPa SE 6.4 km/h 22.5 km/h 85 % 0 mm
23:45 24.9 °C 22.2 °C 1001.6 hPa South 6.4 km/h 22.5 km/h 85 % 0 mm
23:50 24.9 °C 22.4 °C 1001.6 hPa SSE 6.4 km/h 19.3 km/h 86 % 0 mm
23:55 24.9 °C 22.2 °C 1001.6 hPa South 12.9 km/h 19.3 km/h 85 % 0 mm
Spring, Texas: Villages of Bridgestone
Compliments of Weather Underground - 2.75 mb

Script developed by  Jim McMurry - jmcmurry@mwt.net Adapted for the template by  Wim van der Kuil - Leuven-Template.eu

You find our weather info also at:

UK Metoffice

WeatherCloud

Weather Underground

Mid-South Weather Network

AWEKAS

Citizen Weather Observer Program (CWOP)

HAMweather, WeatherForYou, PWS Weather

Equipment we use:

Weather-station
Davis Vantage Vue

Weather-program
Meteohub

Weather-server
Debian 7.9 x86 (Guest)

Provider
DreamHost

Davis Vantage Vue

Meteohub

Debian 7.9 x86 (Guest)

DreamHost